Voltar ao catálogo

CZ-6A DEB

AtivoSSO
NORAD 54990·DEBRIS·🇨🇳 China

Lançado Nov 11, 2022 de Taiyuan Satellite Launch Center

Loading…

Próximas Passagens (próximas 24 horas)

TLE

AtualizadoSource: Space-Track

Época: Sep 14, 2026, 09:23 UTC

1 54990U 22151UF  26257.39112607  .00005037  00000-0  10033-2 0  9993
2 54990  98.6349 315.1875 0074419  53.5605 307.2424 14.60746269201401

Acompanhe CZ-6A DEB em tempo real com AllMySat

Download on the App Store